Powrót do katalogu

FENGYUN 1C DEB

AktywnyPO
NORAD 36689·DEBRIS·🇨🇳 China

Wystrzelony May 10, 1999 z Taiyuan Satellite Launch Center

Loading…

Następne Przeloty (najbliższe 24 godziny)

TLE

NieaktualneSource: Space-Track

Epoka: Aug 17, 2026, 21:39 UTC

1 36689U 99025DZK 26229.90269781  .00001116  00000-0  84503-3 0  9992
2 36689  98.4708 101.5602 0310151 347.5042  11.8544 13.75445936616239

Śledź FENGYUN 1C DEB w czasie rzeczywistym z AllMySat

Download on the App Store